Back to catalog

STARLINK-37972

AliveCommunicationsSSO
NORAD 69708·PAYLOAD·🇺🇸 United States

Launched Jun 28, 2026 from Vandenberg Space Force Base

Loading…

Next Passes (next 24 hours)

TLE

FreshSource: CelesTrak SupGP

Epoch: Sep 14, 2026, 21:14 UTC

1 69708C 26147E   26257.88520833  .00003749  00000+0  11639-3 0  2571
2 69708  97.2837 294.2750 0001170  91.9408 126.6171 15.33432198    11

Track STARLINK-37972 in real time with AllMySat

Download on the App Store